This is the latest recevied weather packets stored in our database for station/object N6RDS-8. If no packets are shown the sender has not sent any weather packets the latest 10 day(s).
| Time | Temp. | Humidity | Pressure | Rain* | Wind** | Luminosity | Snow |
|---|---|---|---|---|---|---|---|
| 1777251126 | 22.78° C | 25% | 1014.1 hPa | 0 mm | - | 84 W/m² | - |
| 1777250822 | 23.33° C | 24% | 1014.2 hPa | 0 mm | - | 110 W/m² | - |
| 1777250520 | 22.78° C | 23% | 1014 hPa | 0 mm | - | 122 W/m² | - |
| 1777250214 | 23.33° C | 23% | 1014 hPa | 0 mm | - | 136 W/m² | - |
| 1777249911 | 23.89° C | 23% | 1013.9 hPa | 0 mm | - | 149 W/m² | - |
| 1777249607 | 23.89° C | 22% | 1013.9 hPa | 0 mm | - | 163 W/m² | - |
| 1777249303 | 23.89° C | 23% | 1013.9 hPa | 0 mm | - | 176 W/m² | - |
| 1777249001 | 23.89° C | 23% | 1013.9 hPa | 0 mm | - | 188 W/m² | - |
| 1777248697 | 23.89° C | 23% | 1013.9 hPa | 0 mm | - | 204 W/m² | - |
| 1777248393 | 24.44° C | 22% | 1013.7 hPa | 0 mm | - | 221 W/m² | - |
| 1777248090 | 23.89° C | 23% | 1013.8 hPa | 0 mm | - | 237 W/m² | - |
| 1777247788 | 23.89° C | 22% | 1013.8 hPa | 0 mm | - | 254 W/m² | - |
| 1777247486 | 24.44° C | 22% | 1013.8 hPa | 0 mm | - | 268 W/m² | - |
| 1777247184 | 24.44° C | 23% | 1013.8 hPa | 0 mm | - | 284 W/m² | - |
| 1777246881 | 24.44° C | 22% | 1013.7 hPa | 0 mm | - | 301 W/m² | - |
| 1777246576 | 24.44° C | 22% | 1013.7 hPa | 0 mm | - | 318 W/m² | - |
| 1777246274 | 24.44° C | 22% | 1013.5 hPa | 0 mm | - | 332 W/m² | - |
| 1777245971 | 25° C | 23% | 1013.7 hPa | 0 mm | - | 349 W/m² | - |
| 1777245669 | 25° C | 22% | 1013.6 hPa | 0 mm | - | 364 W/m² | - |
| 1777245366 | 24.44° C | 23% | 1013.5 hPa | 0 mm | - | 379 W/m² | - |
| 1777245061 | 24.44° C | 23% | 1013.5 hPa | 0 mm | - | 395 W/m² | - |
| 1777244757 | 25° C | 21% | 1013.3 hPa | 0 mm | - | 410 W/m² | - |
| 1777244454 | 25° C | 20% | 1013.6 hPa | 0 mm | - | 426 W/m² | - |
| 1777244150 | 25° C | 21% | 1013.5 hPa | 0 mm | - | 440 W/m² | - |
| 1777243850 | 25° C | 22% | 1013.5 hPa | 0 mm | - | 455 W/m² | - |
* Rain latest hour (hover to see other rain measurements)
** Current wind speed in m/s (hover to see current wind gust speed)